| time (UTC) | temp F | wind direction | speed MPH | gust MPH | rain 1hr in | rain 24hr in | rain mn in | humidity % | barometer mb |
| 20260506073015 | 68 | 238 | 0.0 | 5.0 | 0.00 | 0.00 | 0.00 | 24 | 1004.8 |
| 20260506071512 | 69 | 237 | 0.0 | 5.0 | 0.00 | 0.00 | 0.00 | 23 | 1004.6 |
| 20260506061507 | 70 | 244 | 0.0 | 3.0 | 0.00 | 0.00 | 0.00 | 21 | 1004.4 |
| 20260506044503 | 71 | 237 | 0.0 | 4.0 | 0.00 | 0.00 | 0.00 | 19 | 1003.7 |
| 20260506043101 | 72 | 242 | 1.0 | 8.0 | 0.00 | 0.00 | 0.00 | 19 | 1003.6 |
| 20260506041605 | 72 | 245 | 0.0 | 3.0 | 0.00 | 0.00 | 0.00 | 18 | 1003.5 |
| 20260506040059 | 72 | 242 | 0.0 | 5.0 | 0.00 | 0.00 | 0.00 | 17 | 1003.3 |
| 20260506034602 | 73 | 241 | 0.0 | 4.0 | 0.00 | 0.00 | 0.00 | 16 | 1003.0 |
| 20260506033058 | 73 | 246 | 1.0 | 4.0 | 0.00 | 0.00 | 0.00 | 15 | 1002.7 |
| 20260506031557 | 74 | 233 | 1.0 | 8.0 | 0.00 | 0.00 | 0.00 | 16 | 1002.4 |
| 20260506030057 | 74 | 240 | 1.0 | 5.0 | 0.00 | 0.00 | 0.00 | 18 | 1002.1 |
| 20260506024606 | 74 | 233 | 2.0 | 10.0 | 0.00 | 0.00 | 0.00 | 18 | 1002.0 |
| 20260506023108 | 75 | 242 | 2.0 | 7.0 | 0.00 | 0.00 | 0.00 | 20 | 1001.8 |
| 20260506021554 | 75 | 242 | 3.0 | 8.0 | 0.00 | 0.00 | 0.00 | 19 | 1001.5 |
| 20260506020056 | 75 | 238 | 2.0 | 9.0 | 0.00 | 0.00 | 0.00 | 18 | 1001.3 |
| 20260506014553 | 76 | 234 | 4.0 | 13.0 | 0.00 | 0.00 | 0.00 | 19 | 1001.0 |
| 20260506013056 | 76 | 243 | 1.0 | 9.0 | 0.00 | 0.00 | 0.00 | 19 | 1000.9 |
| 20260506011551 | 76 | 236 | 2.0 | 11.0 | 0.00 | 0.00 | 0.00 | 19 | 1000.8 |
| 20260506010050 | 76 | 245 | 1.0 | 17.0 | 0.00 | 0.00 | 0.00 | 19 | 1000.6 |
| 20260506004552 | 77 | 238 | 2.0 | 12.0 | 0.00 | 0.00 | 0.00 | 19 | 1000.5 |
| 20260506003052 | 77 | 242 | 4.0 | 12.0 | 0.00 | 0.00 | 0.00 | 19 | 1000.5 |
| 20260506001555 | 77 | 230 | 3.0 | 8.0 | 0.00 | 0.00 | 0.00 | 22 | 1000.6 |
| 20260506000052 | 77 | 236 | 0.0 | 4.0 | 0.00 | 0.00 | 0.00 | 26 | 1000.5 |
| 20260505234546 | 76 | 232 | 0.0 | 5.0 | 0.00 | 0.00 | 0.00 | 27 | 1000.6 |
| 20260505233051 | 77 | 237 | 3.0 | 10.0 | 0.00 | 0.00 | 0.00 | 27 | 1000.7 |
| 20260505231547 | 78 | 238 | 2.0 | 8.0 | 0.00 | 0.00 | 0.00 | 27 | 1000.8 |
| 20260505230108 | 78 | 246 | 1.0 | 8.0 | 0.00 | 0.00 | 0.00 | 27 | 1000.9 |
| 20260505224541 | 78 | 261 | 0.0 | 5.0 | 0.00 | 0.00 | 0.00 | 28 | 1001.1 |
| 20260505223044 | 78 | 237 | 4.0 | 14.0 | 0.00 | 0.00 | 0.00 | 28 | 1001.2 |
| 20260505221544 | 79 | 237 | 0.0 | 6.0 | 0.00 | 0.00 | 0.00 | 27 | 1001.4 |
| 20260505220049 | 79 | 244 | 1.0 | 10.0 | 0.00 | 0.00 | 0.00 | 27 | 1001.8 |
| 20260505214536 | 78 | 235 | 3.0 | 11.0 | 0.00 | 0.00 | 0.00 | 27 | 1001.7 |
| 20260505213034 | 78 | 244 | 1.0 | 9.0 | 0.00 | 0.00 | 0.00 | 28 | 1002.1 |
| 20260505211531 | 79 | 243 | 0.0 | 5.0 | 0.00 | 0.00 | 0.00 | 27 | 1002.2 |
| 20260505210026 | 77 | 238 | 3.0 | 9.0 | 0.00 | 0.00 | 0.00 | 28 | 1002.4 |
| 20260505204526 | 78 | 240 | 1.0 | 7.0 | 0.00 | 0.00 | 0.00 | 29 | 1002.5 |
| 20260505203026 | 77 | 291 | 0.0 | 5.0 | 0.00 | 0.00 | 0.00 | 28 | 1002.8 |
| 20260505201626 | 78 | 294 | 1.0 | 9.0 | 0.00 | 0.00 | 0.00 | 28 | 1003.0 |
| 20260505200033 | 77 | 240 | 1.0 | 10.0 | 0.00 | 0.00 | 0.00 | 28 | 1003.2 |
| 20260505194518 | 76 | 246 | 0.0 | 8.0 | 0.00 | 0.00 | 0.00 | 29 | 1003.3 |
| 20260505193016 | 73 | 245 | 0.0 | 11.0 | 0.00 | 0.00 | 0.00 | 31 | 1003.5 |
| 20260505191524 | 73 | 242 | 3.0 | 9.0 | 0.00 | 0.00 | 0.00 | 31 | 1003.8 |
| 20260505190018 | 73 | 240 | 4.0 | 12.0 | 0.00 | 0.00 | 0.00 | 30 | 1003.6 |
| 20260505184514 | 74 | 190 | 4.0 | 11.0 | 0.00 | 0.00 | 0.00 | 30 | 1003.4 |
| 20260505183014 | 73 | 213 | 3.0 | 8.0 | 0.00 | 0.00 | 0.00 | 31 | 1003.8 |
| 20260505181517 | 74 | 227 | 3.0 | 6.0 | 0.00 | 0.00 | 0.00 | 30 | 1003.9 |
| 20260505180012 | 75 | 233 | 1.0 | 6.0 | 0.00 | 0.00 | 0.00 | 31 | 1003.7 |
| 20260505174508 | 74 | 234 | 0.0 | 7.0 | 0.00 | 0.00 | 0.00 | 32 | 1004.0 |
| 20260505173011 | 73 | 237 | 2.0 | 9.0 | 0.00 | 0.00 | 0.00 | 32 | 1004.0 |
| 20260505171507 | 73 | 234 | 1.0 | 8.0 | 0.00 | 0.00 | 0.00 | 33 | 1003.8 |
| 20260505170004 | 70 | 259 | 0.0 | 4.0 | 0.00 | 0.00 | 0.00 | 34 | 1003.8 |
| 20260505164503 | 70 | 260 | 1.0 | 7.0 | 0.00 | 0.00 | 0.00 | 34 | 1003.9 |
| 20260505163006 | 71 | 336 | 0.0 | 4.0 | 0.00 | 0.00 | 0.00 | 33 | 1003.9 |
| 20260505161504 | 70 | 341 | 0.0 | 3.0 | 0.00 | 0.00 | 0.00 | 34 | 1003.7 |
| 20260505153059 | 69 | 347 | 0.0 | 1.0 | 0.00 | 0.00 | 0.00 | 36 | 1003.7 |
| 20260505151558 | 68 | 346 | 0.0 | 3.0 | 0.00 | 0.00 | 0.00 | 38 | 1003.8 |
| 20260505150106 | 67 | 317 | 0.0 | 1.0 | 0.00 | 0.00 | 0.00 | 39 | 1003.9 |
| 20260505124536 | 65 | 314 | 0.0 | 3.0 | 0.00 | 0.00 | 0.00 | 38 | 1003.5 |
| 20260505123034 | 65 | 316 | 0.0 | 3.0 | 0.00 | 0.00 | 0.00 | 38 | 1003.3 |
| 20260505121537 | 65 | 317 | 0.0 | 3.0 | 0.00 | 0.00 | 0.00 | 38 | 1003.2 |
| 20260505120031 | 65 | 317 | 0.0 | 2.0 | 0.00 | 0.00 | 0.00 | 37 | 1003.0 |
| 20260505114528 | 65 | 317 | 0.0 | 3.0 | 0.00 | 0.00 | 0.00 | 36 | 1003.1 |
| 20260505113026 | 66 | 317 | 0.0 | 3.0 | 0.00 | 0.00 | 0.00 | 35 | 1003.0 |
| 20260505111525 | 66 | 319 | 0.0 | 4.0 | 0.00 | 0.00 | 0.00 | 34 | 1002.8 |
| 20260505101529 | 67 | 307 | 0.0 | 3.0 | 0.00 | 0.00 | 0.00 | 33 | 1002.1 |
| 20260505100019 | 67 | 304 | 0.0 | 2.0 | 0.00 | 0.00 | 0.00 | 33 | 1002.1 |
| 20260505094517 | 67 | 304 | 0.0 | 3.0 | 0.00 | 0.00 | 0.00 | 33 | 1002.3 |
| 20260505093016 | 68 | 301 | 0.0 | 3.0 | 0.00 | 0.00 | 0.00 | 32 | 1002.2 |
| 20260505091513 | 68 | 295 | 0.0 | 4.0 | 0.00 | 0.00 | 0.00 | 31 | 1002.4 |
| 20260505090028 | 69 | 294 | 0.0 | 3.0 | 0.00 | 0.00 | 0.00 | 30 | 1002.5 |
| 20260505084511 | 69 | 292 | 0.0 | 3.0 | 0.00 | 0.00 | 0.00 | 29 | 1002.6 |
| 20260505083008 | 69 | 292 | 0.0 | 3.0 | 0.00 | 0.00 | 0.00 | 28 | 1002.5 |
| 20260505081507 | 70 | 295 | 0.0 | 2.0 | 0.00 | 0.00 | 0.00 | 28 | 1003.0 |